IkaScore Players IkaScore Alliances






Support IkaScore

Please donate to
me@ikascore.com

using Skrill
Brazil Eunomia
Ikariam players: 250
AverageTotal
Pontuação total: 1631667 407916855
Mestres de Alvenaria: 1361733 340433359
Níveis de construção: 2112 528102
Cientistas: 250108 62527035
Níveis de pesquisa: 248 62016
Generais: 8024 2005886
Ouro: 373195 2129452868
Pontos ofensivos: 132 32963
Pontos de defesa: 109 27193
Pontuação comercial: 664 165928
Recursos: 1029398 257349535
doar: 109672 27417975
Score vulnerability: 177964 44490937
Gold vulnerability: 3248 812114
Population: 11802 2950575
Donations to score: 261620 65405064

Digg! Delicious! IkaScore homepage
Players - Pontuação total
  per page  Next page >>
Rank Ikariam player Alliance Score Type Score Updated
1 Rei dos Piratas Player ONE MAFIA Pontuação total 22506890 24/03 04:35
2 GrimEyes MAFIA Pontuação total 21085072 24/03 04:35
3 _sophia Sophi Pontuação total 15400545 24/03 04:35
4 Mário Júnior MAFIA Pontuação total 12794843 24/03 04:35
5 Apóstolo de Zeus El-Matador -Δ- Pontuação total 12071393 24/03 04:35
6 Big cheese Pontuação total 9593859 24/03 04:35
Support IkaScore

Please donate to    me@ikascore.com    using Skrill
7 Campeão de Aquiles rairodrigues MAFIA Pontuação total 9532268 24/03 04:35
8 Andy55 MAFIA Pontuação total 7461586 24/03 04:35
9 Martelo dos Bárbaros T E M P L A RiO MAFIA Pontuação total 7071761 24/03 04:35
10 Pedromal Pontuação total 6879026 24/03 04:35
11 Campeão de Aquiles Hannibal MAFIA Pontuação total 6876613 24/03 04:35
12 Rei dos Piratas D Luffy Pontuação total 6839652 24/03 04:35
13 Imperador Henrique100 HDX Pontuação total 6663076 24/03 04:35
14 Amante das Artes The SanT Ø_Ø Pontuação total 6635708 24/03 04:35
15 livassan07 Ø_Ø Pontuação total 5851931 24/03 04:35
16 HAMATE HMT Pontuação total 5694700 24/03 04:35
17 Pirata C-Johnny Depp MAFIA Pontuação total 5445221 24/03 04:35
18 Cachorro Loko Pontuação total 5131695 24/03 04:35
19 Imperador Sr Napoleão Pontuação total 5057101 24/03 04:35
20 Rei dos Piratas P E R I G Ø MAFIA Pontuação total 4962937 24/03 04:35
21 kenia Pontuação total 4639390 24/03 04:35
22 Caçador de Pontos Marushi Pontuação total 4556149 24/03 04:35
23 Lord Rato Pontuação total 4542075 24/03 04:35
24 Rato de Laboratório erikeac Pontuação total 4507410 24/03 04:35
25 Campeão de Aquiles -MONSTRO- -ϟ- Pontuação total 4368766 24/03 04:35
26 HUNTER MAFIA Pontuação total 4293364 24/03 04:35
27 F-I-V-E - 0 -FnC- Pontuação total 4287108 24/03 04:35
28 Root -ϟ- Pontuação total 4201527 24/03 04:35
29 rodriguinho08 Pontuação total 4108569 24/03 04:35
30 Dobis Pontuação total 4008932 24/03 04:35
31 Mentor H M E M N O N Ø_Ø Pontuação total 3965840 24/03 04:35
32 Caçador de Pontos muido Pontuação total 3904347 24/03 04:35
33 Campeão de Aquiles Radamanthys Pontuação total 3809927 24/03 04:35
34 chico zé -Δ- Pontuação total 3755907 24/03 04:35
35 Mentor -MEDEOTTO- -Δ- Pontuação total 3457635 24/03 04:35
36 Patrono TBKs_LORDÃO Pontuação total 3448195 24/03 04:35
37 Rei do Negócio de Armas Mareshall MAFIA Pontuação total 3369214 24/03 04:35
38 Caçador de Pontos Proteus -ϟ- Pontuação total 3140898 24/03 04:35
39 Mentor HaDDeR MAFIA Pontuação total 3137299 24/03 04:35
40 BRYAN AUGUSTO FRS Pontuação total 3100413 24/03 04:35
41 Martelo dos Bárbaros Thanatus Pontuação total 3086870 24/03 04:35
42 Tesoureiro do Rei Midas tempestade MAFIA Pontuação total 3063202 24/03 04:35
43 Amante das Artes 10_TCS_LIVRES MAFIA Pontuação total 3056236 24/03 04:35
44 Milagreiro Becarefull -ϟ- Pontuação total 3040290 24/03 04:35
45 Rei do Negócio de Armas General Killer Pontuação total 2994558 24/03 04:35
46 Caçador de Pontos ABU SALAM -FnC- Pontuação total 2931632 24/03 04:35
47 Pirata lelo1 Pontuação total 2876716 24/03 04:35
48 Gilberto30 MAFIA Pontuação total 2837341 24/03 04:35
49 Rei dos Piratas Mafioso _KROSS MAFIA Pontuação total 2818958 24/03 04:35
50 Caçador de Pontos JAB Pontuação total 2790501 24/03 04:35
51 Campeão de Hércules SC_ -FnC- Pontuação total 2740215 24/03 04:35
52 --CONAN-- MAFIA Pontuação total 2644608 24/03 04:35
53 Aprendiz de Pirata sacerdote Pontuação total 2603087 24/03 04:35
54 Necrox MINI Pontuação total 2541543 24/03 04:35
55 Antony Pontuação total 2495631 24/03 04:35
56 nortongrey Pontuação total 2431518 24/03 04:35
57 Caçador de Pontos JUSTICEIRO 35TC Pontuação total 2410671 24/03 04:35
58 Maratonista bidu-vinicius Pontuação total 2341963 24/03 04:35
59 Presidente da Câmara LoboSolitário Ø_Ø Pontuação total 2328199 24/03 04:35
60 Aprendiz de Pirata carino MAFIA Pontuação total 2291783 24/03 04:35
61 Raylander MAFIA Pontuação total 2260638 24/03 04:35
62 Grandmaster Pontuação total 2211039 24/03 04:35
63 Mentor Simonselos -7- Pontuação total 2145652 24/03 04:35
64 gallina MAFIA Pontuação total 2141011 24/03 04:35
65 bravo04 Pontuação total 2061776 24/03 04:35
66 Dragonet Pontuação total 1879793 24/03 04:35
67 danielfarah Pontuação total 1869898 24/03 04:35
68 Maratonista Teteu Pontuação total 1867820 24/03 04:35
69 Onpact Pontuação total 1790636 24/03 04:35
70 Amante das Artes Bindy Pontuação total 1782152 24/03 04:35
71 Maximus10 MAFIA Pontuação total 1730393 24/03 04:35
72 Amante das Artes Baruk Pontuação total 1709594 24/03 04:35
73 Campeão de Hércules Tigre_ninja Pontuação total 1675149 24/03 04:35
74 Embaixador Hernani TRETA Pontuação total 1568292 24/03 04:35
75 Agomy Sophi Pontuação total 1552642 24/03 04:35
76 Rico84 Pontuação total 1429550 24/03 04:35
77 Martelo dos Bárbaros vlad tepes Pontuação total 1419625 24/03 04:35
78 TIGRE Pontuação total 1417971 24/03 04:35
79 Marceljiu MINI Pontuação total 1294137 24/03 04:35
80 RICARDAO - UDI -ϟ- Pontuação total 1284024 24/03 04:35
81 Maratonista Mestre Byron -ϟ- Pontuação total 1282697 24/03 04:35
82 Capitão Pirata Kimura Pontuação total 1279461 24/03 04:35
83 Caçador de Pontos COSTANTINI MAFIA Pontuação total 1267706 24/03 04:35
84 The RaVeN Pontuação total 1258904 24/03 04:35
85 Presidente da Câmara Luizz Pontuação total 1243359 24/03 04:35
86 LPINHEIRO Pontuação total 1166205 24/03 04:35
87 Presidente da Câmara kaquario RVOS Pontuação total 1162700 24/03 04:35
88 Presidente da Câmara Snow Pontuação total 1132474 24/03 04:35
89 Aprendiz de Pirata xadtryad Pontuação total 1126358 24/03 04:35
90 warfire Pontuação total 1125208 24/03 04:35
91 Amante das Artes SHERIFF65 Pontuação total 1123316 24/03 04:35
92 Gênio Gael -ϟ- Pontuação total 1110520 24/03 04:35
93 Neo-B MAFIA Pontuação total 1099240 24/03 04:35
94 Alacatre -FnC- Pontuação total 1083200 24/03 04:35
95 007 SlímShady Pontuação total 1031538 24/03 04:35
96 Mentor _HG Pontuação total 1031206 24/03 04:35
97 Mentor Drigo Pontuação total 1031125 24/03 04:35
98 daldal -Δ- Pontuação total 984116 24/03 04:35
99 Odin Pontuação total 927263 24/03 04:35
100 Guerrilha MINI Pontuação total 916746 24/03 04:35
  per page  Next page >>

Copyright © 2010 IkaScore.com All Rights Reserved | Disclaimer